Flag for U.S.A. Weather past 2 weeks in Paramus, New Jersey, U.S.A.

Now
43 °F

Sunny.


Feels Like: 35 °F
Forecast: 35 / 59 °F
Wind: 16 mph from North

Location: Teterboro Airport

Current Time: Apr 24, 2015 at 9:05:40 PM

Latest Report: Apr 24, 2015 at 7:51 PM


Visibility: 10 mi

Pressure: 29.90 "Hg

Humidity: 38%

Dew point: 19 °F

Location of ParamusLocation

Historic Weather in Paramus — Graph

°F

Paramus temperature yesterday

Maximum temperature yesterday: 50 °F (at 2:51 PM)
Minimum temperature yesterday: 40 °F (at 4:51 AM)
Average temperature yesterday: 44 °F

Past Weeks' High & Low Weather Summary

 TemperatureHumidityPressure
High80 °F (Apr 18, 4:51 PM)97% (Apr 20, 8:51 PM)30.48 "Hg (Apr 20, 8:51 PM)
Low35 °F (Apr 12, 5:51 AM)12% (Apr 15, 3:51 PM)29.50 "Hg (Apr 22, 2:51 PM)
Average55 °F53%30.00 "Hg
* Reported Apr 9 7:51 PM — Apr 24 7:51 PM, Paramus, Weather by CustomWeather, © 2015

Note: Actual official high and low records may vary slightly from our data, if they occured in-between our weather recording intervals... More about our weather records

Advertising

Paramus weather history for previous 24 hours

 ConditionsComfort  
Time TempWeatherWind HumidityBarometerVisibility
7:51 PM
Fri, Apr 24
43 °FSunny.16 mph38%29.90 "Hg10 mi
6:51 PM45 °FSunny.18 mph35%29.87 "Hg10 mi
5:51 PM48 °FSunny.20 mph32%29.86 "Hg10 mi
4:51 PM49 °FSunny.20 mph29%29.84 "Hg10 mi
3:51 PM49 °FScattered clouds.17 mph31%29.83 "Hg10 mi
2:51 PM50 °FScattered clouds.23 mph33%29.82 "Hg10 mi
1:51 PM48 °FPartly sunny.20 mph34%29.83 "Hg10 mi
12:51 PM45 °FOvercast.14 mph38%29.85 "Hg10 mi
11:51 AM43 °FOvercast.10 mph42%29.86 "Hg10 mi
10:51 AM44 °FPartly sunny.18 mph37%29.86 "Hg10 mi
9:51 AM41 °FOvercast.16 mph39%29.87 "Hg10 mi
8:51 AM39 °FPartly sunny.15 mph43%29.88 "Hg10 mi
7:51 AM38 °FOvercast.16 mph48%29.88 "Hg10 mi
6:51 AM38 °FOvercast.18 mph48%29.88 "Hg10 mi
5:51 AM38 °FOvercast.16 mph48%29.86 "Hg10 mi
4:51 AM38 °FOvercast.13 mph48%29.85 "Hg10 mi
3:51 AM39 °FOvercast.9 mph45%29.85 "Hg10 mi
2:51 AM39 °FOvercast.16 mph43%29.84 "Hg10 mi
1:51 AM39 °FPassing clouds.10 mph43%29.83 "Hg10 mi
12:51 AM40 °FPassing clouds.13 mph41%29.84 "Hg10 mi
11:51 PM
Thu, Apr 23
40 °FClear.15 mph43%29.83 "Hg10 mi
10:51 PM41 °FClear.10 mph43%29.83 "Hg10 mi
9:51 PM42 °FClear.8 mph41%29.82 "Hg10 mi
Weather by CustomWeather, © 2015

See weather overviewHow to use our weather pages